Terminal Aerodrome Forecast
Issued by NWS Boston, MA

Home | Current Version | Previous Version | Text Only | Print | Product List | Glossary On
Versions: 1 2 3 4 5 6 7 8 9 10 11 12 13 14 15 16 17 18 19 20 21 22 23 24 25 26 27 28 29 30 31 32 33 34 35 36 37 38 39 40
000
FTUS41 KBOX 271728
TAFPVD
TAF
KPVD 271728Z 2718/2818 21012G18KT P6SM FEW050
     FM280200 24006KT P6SM BKN100
     FM280700 30005KT P6SM BKN150
     FM281500 34009KT P6SM FEW250=

USA.gov is the U.S. government's official web portal to all federal, state and local government web resources and services.